Location: *
(50.8512°N, 5.6907°E)
Time: 13:34:28
(UTC+00:00)

Nadezhda 1 Rocket - Pass Details

Date: 09 April 2020
Orbit: 940 x 1006 km, 83.0° (Epoch: 22 May)

Event Time Altitude Azimuth Distance (km) Brightness Sun altitude
Rises 19:17:23 0° 183° (S) 3,721 6.8 -8.8°
Reaches altitude 10° 19:19:54 10° 183° (S) 2,772 6.2 -9.2°
Maximum altitude 19:26:17 81° 98° (E) 1,017 4.0 -10.1°
Drops below altitude 10° 19:32:38 10° 12° (NNE) 2,759 6.6 -11.0°
Sets 19:35:09 0° 11° (N) 3,702 7.3 -11.3°
